Harlan, IA

9:07 PM CST on February 10, 2016 (GMT -0600)
Harlan Municipal

Weather History for KHNR - January, 2013

Change the Weather History Date:

Tuesday, January 29, 2013

  Actual Average (KOMA) Record (KOMA)
Temperature  
Mean Temperature 34 °F 24 °F  
Max Temperature 39 °F 34 °F 63 °F (1931)
Min Temperature 28 °F 14 °F -17 °F (1966)
Degree Days  
Heating Degree Days 32 41  
Month to date heating degree days 1210  
Since 1 July heating degree days 3689  
Cooling Degree Days 0 0  
Month to date cooling degree days 0  
Year to date cooling degree days 0  
Moisture  
Dew Point 32 °F    
Average Humidity 95    
Maximum Humidity 100    
Minimum Humidity 86    
Precipitation  
Precipitation 0.00 in 0.03 in 0.71 in (1880)
Month to date precipitation 0.67  
Year to date precipitation 0.67  
Snow  
Snow 0.00 in 0.30 in - ()
Month to date snowfall 5.7  
Since 1 July snowfall 14.7  
Snow Depth -    
Sea Level Pressure  
Sea Level Pressure 29.66 in    
Wind  
Wind Speed 10 mph (NNW)    
Max Wind Speed 22 mph    
Max Gust Speed 31 mph    
Visibility 7 miles    
Events Fog , Snow    
T = Trace of Precipitation, MM = Missing Value Source: NWS Daily Summary

Daily Weather History Graph

Daily Weather History Graph

Search for Another Location

Airport or City:

Trip Planner

Search our weather history database for the weather conditions in past years. The results will help you decide how hot, cold, wet, or windy it might be!

Date:

Astronomy

Jan. 29, 2013 Rise Set
Actual Time 7:35 AM CST 5:33 PM CST
Civil Twilight 7:06 AM CST 6:03 PM CST
Nautical Twilight 6:32 AM CST 6:36 PM CST
Astronomical Twilight 6:00 AM CST 7:09 PM CST
Moon 8:34 PM CST (1/29) 8:30 AM CST (1/29)
Length of Visible Light 10h 57m
Length of Day
9h 57m
Waning Gibbous, 93% of the Moon is Illuminated
Jan 29
Waning Gibbous
Feb 3
Last Quarter
Feb 10
New
Feb 17
First Quarter
Feb 25
Full

Hourly Weather History & Observations

Time (CST) Temp. Windchill Dew Point Humidity Pressure Visibility Wind Dir Wind Speed Gust Speed Precip Events Conditions
12:15 AM 39.2 °F 35.9 °F 39.2 °F 100% 29.58 in 0.2 mi NNE 4.6 mph - N/A Fog Fog
12:35 AM 37.4 °F 33.8 °F 37.4 °F 100% 29.57 in 0.5 mi NNW 4.6 mph - N/A Fog Fog
12:55 AM 37.4 °F - 37.4 °F 100% 29.56 in 0.5 mi Calm Calm - N/A Fog Fog
1:15 AM 37.4 °F 34.9 °F 37.4 °F 100% 29.57 in 0.5 mi NNW 3.5 mph 19.6 mph N/A Fog Fog
1:35 AM 37.4 °F 30.3 °F 37.4 °F 100% 29.58 in 2.0 mi NW 10.4 mph - N/A   Overcast
1:55 AM 37.4 °F 28.2 °F 37.4 °F 100% 29.60 in 1.0 mi WNW 16.1 mph - N/A   Overcast
2:15 AM 37.4 °F 30.8 °F 37.4 °F 100% 29.61 in 3.0 mi NW 9.2 mph - N/A   Overcast
2:35 AM 37.4 °F 28.9 °F 37.4 °F 100% 29.62 in 2.0 mi WNW 13.8 mph - N/A   Overcast
2:55 AM 37.4 °F 27.2 °F 37.4 °F 100% 29.62 in 5.0 mi NW 19.6 mph 25.3 mph N/A   Overcast
3:15 AM 35.6 °F 25.9 °F 35.6 °F 100% 29.63 in 4.0 mi NW 16.1 mph 23.0 mph N/A   Overcast
3:35 AM 35.6 °F 28.0 °F 35.6 °F 100% 29.64 in 7.0 mi NW 10.4 mph - N/A   Overcast
3:55 AM 35.6 °F 27.5 °F 35.6 °F 100% 29.64 in 5.0 mi NW 11.5 mph - N/A   Overcast
4:15 AM 35.6 °F 26.6 °F 35.6 °F 100% 29.64 in 4.0 mi NW 13.8 mph - N/A   Overcast
4:35 AM 33.8 °F 27.0 °F 33.8 °F 100% 29.64 in 3.0 mi NW 8.1 mph - N/A   Overcast
5:15 AM 33.8 °F 28.6 °F 33.8 °F 100% 29.65 in 10.0 mi NNW 5.8 mph - N/A   Overcast
5:35 AM 33.8 °F 26.4 °F 33.8 °F 100% 29.66 in 7.0 mi WNW 9.2 mph - N/A   Overcast
5:55 AM 33.8 °F 26.4 °F 33.8 °F 100% 29.65 in 7.0 mi WNW 9.2 mph - N/A   Overcast
6:15 AM 33.8 °F 25.3 °F 33.8 °F 100% 29.66 in 4.0 mi WNW 11.5 mph - N/A   Overcast
6:35 AM 32.0 °F 24.2 °F 32.0 °F 100% 29.64 in 2.0 mi NW 9.2 mph - N/A   Overcast
6:55 AM 32.0 °F 26.4 °F 32.0 °F 100% 29.66 in 2.5 mi NW 5.8 mph - N/A   Overcast
7:15 AM 32.0 °F 23.0 °F 32.0 °F 100% 29.67 in 3.0 mi NW 11.5 mph - N/A   Overcast
7:35 AM 32.0 °F 22.5 °F 32.0 °F 100% 29.68 in 4.0 mi NW 12.7 mph 19.6 mph N/A   Overcast
7:55 AM 30.2 °F 21.3 °F 30.2 °F 100% 29.68 in 3.0 mi NW 10.4 mph - N/A   Overcast
8:15 AM 32.0 °F 27.5 °F 32.0 °F 100% 29.71 in 4.0 mi NW 4.6 mph - N/A   Overcast
8:35 AM 32.0 °F 22.1 °F 32.0 °F 100% 29.70 in 4.0 mi NW 13.8 mph - N/A   Overcast
8:55 AM 32.0 °F 23.0 °F 32.0 °F 100% 29.71 in 3.0 mi NW 11.5 mph - N/A   Overcast
9:15 AM 32.0 °F 23.6 °F 32.0 °F 100% 29.72 in 5.0 mi NNW 10.4 mph - N/A   Overcast
9:35 AM 32.0 °F 24.8 °F 32.0 °F 100% 29.72 in 3.0 mi NW 8.1 mph - N/A   Overcast
9:55 AM 32.0 °F 24.2 °F 32.0 °F 100% 29.72 in 3.0 mi NNW 9.2 mph - N/A   Overcast
10:15 AM 32.0 °F 24.8 °F 32.0 °F 100% 29.72 in 3.0 mi NNW 8.1 mph - N/A   Overcast
10:35 AM 33.8 °F 28.6 °F 33.8 °F 100% 29.71 in 4.0 mi North 5.8 mph - N/A   Overcast
10:55 AM 33.8 °F 27.0 °F 33.8 °F 100% 29.70 in 10.0 mi North 8.1 mph - N/A   Overcast
11:15 AM 33.8 °F 24.3 °F 33.8 °F 100% 29.68 in 10.0 mi North 13.8 mph - N/A   Overcast
11:35 AM 33.8 °F 23.9 °F 32.0 °F 93% 29.67 in 10.0 mi North 15.0 mph - N/A   Overcast
11:55 AM 33.8 °F 24.8 °F 32.0 °F 93% 29.67 in 10.0 mi North 12.7 mph 20.7 mph N/A   Overcast
12:15 PM 33.8 °F 24.3 °F 32.0 °F 93% 29.68 in 10.0 mi North 13.8 mph - N/A   Overcast
12:35 PM 33.8 °F 24.8 °F 32.0 °F 93% 29.67 in 7.0 mi North 12.7 mph 16.1 mph N/A   Overcast
12:55 PM 33.8 °F 25.8 °F 32.0 °F 93% 29.67 in 4.0 mi North 10.4 mph - N/A   Overcast
1:15 PM 33.8 °F 24.8 °F 30.2 °F 87% 29.65 in 7.0 mi North 12.7 mph 18.4 mph N/A   Overcast
1:35 PM 33.8 °F 23.5 °F 30.2 °F 87% 29.65 in 7.0 mi NNW 16.1 mph - N/A   Overcast
1:55 PM 33.8 °F 24.3 °F 30.2 °F 87% 29.64 in 10.0 mi North 13.8 mph 19.6 mph N/A   Overcast
2:15 PM 33.8 °F 25.3 °F 30.2 °F 87% 29.65 in 10.0 mi North 11.5 mph - N/A   Overcast
2:35 PM 33.8 °F 24.8 °F 30.2 °F 87% 29.65 in 10.0 mi North 12.7 mph - N/A   Overcast
2:55 PM 33.8 °F 24.3 °F 30.2 °F 87% 29.64 in 10.0 mi North 13.8 mph 19.6 mph N/A   Overcast
3:15 PM 33.8 °F 24.3 °F 30.2 °F 87% 29.65 in 10.0 mi North 13.8 mph 18.4 mph N/A   Overcast
3:35 PM 33.8 °F 24.8 °F 30.2 °F 87% 29.65 in 10.0 mi North 12.7 mph 18.4 mph N/A   Overcast
3:55 PM 33.8 °F 24.3 °F 30.2 °F 87% 29.65 in 10.0 mi North 13.8 mph - N/A   Overcast
4:15 PM 33.8 °F 24.3 °F 30.2 °F 87% 29.65 in 10.0 mi North 13.8 mph - N/A   Overcast
4:35 PM 33.8 °F 24.8 °F 30.2 °F 87% 29.65 in 10.0 mi North 12.7 mph 19.6 mph N/A   Overcast
4:55 PM 33.8 °F 24.3 °F 30.2 °F 87% 29.66 in 10.0 mi North 13.8 mph 24.2 mph N/A   Overcast
5:15 PM 33.8 °F 23.9 °F 30.2 °F 87% 29.65 in 10.0 mi North 15.0 mph 21.9 mph N/A   Overcast
5:35 PM 32.0 °F 22.1 °F 30.2 °F 93% 29.64 in 10.0 mi North 13.8 mph 20.7 mph N/A   Overcast
5:55 PM 32.0 °F 22.1 °F 30.2 °F 93% 29.66 in 10.0 mi North 13.8 mph - N/A   Overcast
6:15 PM 32.0 °F 23.6 °F 30.2 °F 93% 29.67 in 10.0 mi North 10.4 mph - N/A   Overcast
6:35 PM 32.0 °F 22.5 °F 30.2 °F 93% 29.66 in 10.0 mi North 12.7 mph - N/A   Overcast
6:55 PM 32.0 °F 23.0 °F 30.2 °F 93% 29.67 in 10.0 mi North 11.5 mph - N/A   Overcast
7:15 PM 32.0 °F 21.6 °F 30.2 °F 93% 29.67 in 10.0 mi North 15.0 mph 19.6 mph N/A   Overcast
7:35 PM 32.0 °F 20.8 °F 30.2 °F 93% 29.66 in 10.0 mi North 17.3 mph 21.9 mph N/A   Overcast
7:55 PM 32.0 °F 22.1 °F 30.2 °F 93% 29.65 in 10.0 mi North 13.8 mph 21.9 mph N/A   Overcast
8:15 PM 32.0 °F 22.1 °F 30.2 °F 93% 29.67 in 10.0 mi North 13.8 mph - N/A   Overcast
8:35 PM 32.0 °F 22.5 °F 30.2 °F 93% 29.70 in 10.0 mi North 12.7 mph 18.4 mph N/A   Overcast
8:55 PM 32.0 °F 23.0 °F 30.2 °F 93% 29.70 in 10.0 mi North 11.5 mph - N/A   Overcast
9:15 PM 32.0 °F 20.5 °F 30.2 °F 93% 29.69 in 10.0 mi North 18.4 mph - N/A   Overcast
9:35 PM 32.0 °F 22.5 °F 28.4 °F 87% 29.68 in 7.0 mi North 12.7 mph - N/A Snow Light Snow
9:55 PM 32.0 °F 21.2 °F 30.2 °F 93% 29.67 in 3.0 mi North 16.1 mph - N/A Snow Light Snow
10:15 PM 30.2 °F 17.8 °F 28.4 °F 93% 29.65 in 3.0 mi North 19.6 mph 23.0 mph N/A Snow Light Snow
10:35 PM 30.2 °F 17.4 °F 28.4 °F 93% 29.66 in 10.0 mi North 20.7 mph 26.5 mph N/A Snow Light Snow
10:55 PM 30.2 °F 17.1 °F 26.6 °F 86% 29.66 in 10.0 mi North 21.9 mph 26.5 mph N/A   Overcast
11:15 PM 28.4 °F 14.7 °F 26.6 °F 93% 29.65 in 10.0 mi North 21.9 mph 31.1 mph N/A   Overcast
11:35 PM 28.4 °F 16.2 °F 26.6 °F 93% 29.64 in 10.0 mi North 17.3 mph 28.8 mph N/A   Overcast